Regional Weather Roundup
Issued by NWS

Home | Current Version | Previous Version | Text Only | Print | Product List | Glossary Off
Versions: 1 2 3 4 5 6 7 8 9 10 11 12 13 14 15 16 17 18 19 20 21 22 23 24 25 26 27 28 29 30 31 32 33 34 35 36 37 38 39 40 41 42 43 44 45 46 47 48 49 50

432
ASUS43 KIND 082009
RWRIN

WEATHER ROUNDUP FOR INDIANA
NATIONAL WEATHER SERVICE INDIANAPOLIS IN
300 PM EST MON FEB 08 2016

NOTE: "FAIR" INDICATES FEW OR NO CLOUDS BELOW 12,000 FEET WITH NO
SIGNIFICANT WEATHER AND/OR OBSTRUCTIONS TO VISIBILITY.

* - STATION DOES NOT REPORT WEATHER SUCH AS PRECIPITATION OR FOG.

+ - STATION NOT QUALITY CONTROLLED BY THE NATIONAL WEATHER SERVICE.
    USE DATA WITH CAUTION...ESPECIALLY DEWPOINT AND RELATIVE
    HUMIDITY OBSERVATIONS.

INZ001>003-010>013-019-020-082100-
NORTHWEST INDIANA

CITY           SKY/WX    TMP DP  RH WIND       PRES   REMARKS
GARY /AIRPORT/ CLOUDY    32  21  64 W13       29.67S WCI  22
KNOX *+        CLOUDY    30  25  80 W13G18    29.66R WCI  20
LA PORTE +     CLOUDY    33  26  76 W7        29.65R WCI  27
MICHIGAN CITY+ CLOUDY    32  25  74 W8G16     29.67R WCI  25
MONTICELLO +   FLURRIES  28  21  76 W15       29.68R WCI  16
RENSSELAER +   CLOUDY    28  21  74 W18       29.69R WCI  16
VALPARAISO     CLOUDY    31  23  72 W12       29.66R WCI  22

$$

LMZ046-743>745-082100-
SOUTHERN LAKE MICHIGAN

STATION/POSITION TIME  TEMP    WIND        PRES    WAVE
                       AIR SEA DIR/SP/G            HT
                 (UTC) (F)     (DEG/KT/KT) (MB)    (FT)
BURNS HARBOR     1900   31     270/ 13/ 16 1004.7F
MICHIGAN CITY    1900   30     240/ 17/ 18   N/A

$$

INZ004-005-014>016-021>024-082100-
NORTH CENTRAL INDIANA

CITY           SKY/WX    TMP DP  RH WIND       PRES   REMARKS
ELKHART          N/A     32  27  80 W12       29.62S WCI  23
GOSHEN         CLOUDY    34  28  79 NW9       29.61S WCI  27
LOGANSPORT +   LGT SNOW  30  23  74 W10       29.67R WCI  21
PERU/GRISSOM   FLURRIES  30  26  86 W17       29.63R WCI  18
ROCHESTER +    MIX PCPN  32  28  86 W13       29.65R WCI  22
SOUTH BEND     CLOUDY    30  26  85 NW13      29.64R WCI  20
WARSAW +       CLOUDY    32  30  93 W14       29.62R FOG     WCI  22

$$

INZ006>009-017-018-025>027-082100-
NORTHEAST INDIANA

CITY           SKY/WX    TMP DP  RH WIND       PRES   REMARKS
ANGOLA *+      CLOUDY    36  28  75 NW6       29.58F
AUBURN +       CLOUDY    37  27  65 W9        29.60S
FORT WAYNE     CLOUDY    37  28  70 W15       29.61S
HUNTINGTON +   CLOUDY    36  24  61 W8        29.61R

$$

INZ028-029-035-036-043>045-051>053-082100-
WEST CENTRAL INDIANA

CITY           SKY/WX    TMP DP  RH WIND       PRES   REMARKS
GREENCASTLE +  LGT SNOW  28  18  64 W9G16     29.71R WCI  20
LAFAYETTE      FLURRIES  26  21  81 W15       29.70R WCI  14
TERRE HAUTE    LGT SNOW  27  22  81 NW13      29.76R WCI  16

$$

INZ030>032-037>040-046>048-054>057-064-065-082100-
CENTRAL INDIANA

CITY           SKY/WX    TMP DP  RH WIND       PRES   REMARKS
FISHERS *+     CLOUDY    30  28  93 NW14G21   29.67R WCI  20
FRANKFORT +    FLURRIES  29  26  90 W20       29.69R WCI  16
GREENWOOD *+   CLOUDY    32  32 100 NW7       29.66R VSB 1/2 WCI  26
INDIANAPOLIS   FLURRIES  30  26  85 NW18G26   29.66R WCI  18
-EAGLE CREEK   CLOUDY    30  26  85 NW17      29.66R WCI  18
KOKOMO *+      CLOUDY    30  23  74 NW21      29.65R WCI  17
MARION +       CLOUDY    32  24  73 NW18      29.64R WCI  20
MT COMFORT *+  CLOUDY    32  28  86 NW16G22   29.65R WCI  21
SHELBYVILLE    FLURRIES  37  30  75 NW20G25   29.63R
ZIONSVILLE +   CLOUDY    29  25  86 W13G22    29.67R WCI  19

$$

INZ033-034-041-042-049-050-058-059-082100-
EAST CENTRAL INDIANA

CITY           SKY/WX    TMP DP  RH WIND       PRES   REMARKS
MUNCIE         CLOUDY    40  28  62 W8        29.61S

$$

INZ060-061-067>069-081>083-085>088-082100-
SOUTHWEST INDIANA

CITY           SKY/WX    TMP DP  RH WIND       PRES   REMARKS
EVANSVILLE     LGT SNOW  30  25  80 NW10G21   29.80R VSB 1   WCI  21
HUNTINGBURG *+ CLOUDY    30  25  80 NW15      29.77R WCI  19
WASHINGTON +   LGT SNOW  28  26  89 NW20      29.77R WCI  15

$$

INZ062-063-066-070>080-084-089>092-082100-
SOUTH CENTRAL AND SOUTHEAST INDIANA

CITY           SKY/WX    TMP DP  RH WIND       PRES   REMARKS
BEDFORD +      CLOUDY    30  27  86 W13G22    29.72  WCI  20
BLOOMINGTON    LGT SNOW  28  23  81 NW12G24   29.70R WCI  18
MADISON *+     CLOUDY    37  32  81 W9        29.66S
NORTH VERNON + LGT SNOW  34  34 100 W12G20    29.65R WCI  25
SEYMOUR +      LGT SNOW  36  34  93 W16G28    29.67R

$$





USA.gov is the U.S. government's official web portal to all federal, state and local government web resources and services.